AirNav   Air Wisconsin pilot careers
 
 373 users online  

77F Winters Municipal Airport
Winters, Texas, USA

GOING TO WINTERS?


FAA INFORMATION EFFECTIVE 29 MARCH 2018

Location

FAA Identifier: 77F
Lat/Long: 31-56-49.8991N / 099-59-09.0602W
31-56.831652N / 099-59.151003W
31.9471942 / -99.9858501
(estimated)
Elevation: 1871 ft. / 570.3 m (surveyed)
Variation: 08E (1980)
From city: 2 miles SW of WINTERS, TX
Time zone: UTC -5 (UTC -6 during Standard Time)
Zip code: 79567

Airport Operations

Airport use: Open to the public
Control tower: no
ARTCC: FORT WORTH CENTER
FSS: SAN ANGELO FLIGHT SERVICE STATION
NOTAMs facility: SJT (NOTAM-D service available)
Attendance: UNATNDD
Wind indicator: lighted
Segmented circle: yes
Lights: SS-SR
Beacon: white-green (lighted land airport)
Operates sunset to sunrise.

Airport Communications

CTAF: 122.9
ABILENE APPROACH: 127.2 [OPR 1200-0200Z++ MON-FRI; 1800-2300Z++ SUN; CLSD SAT AND HOL, OT CTC FORT WORTH CENTER 133.5 350.35.]
ABILENE DEPARTURE: 127.2 [OPR 1200-0200Z++ MON-FRI; 1800-2300Z++ SUN; CLSD SAT AND HOL, OT CTC FORT WORTH CENTER 133.5 350.35.]

Nearby radio navigation aids

VOR radial/distance  VOR name  Freq  Var
TQAr196/19.3TUSCOLA VOR/DME111.6010E
ABIr181/32.6ABILENE VORTAC113.7010E

 
NDB name  Hdg/Dist  Freq  Var  ID
SWEETWATER134/39.327508ESWW ... .-- .--

Airport Services

Parking: hangars and tiedowns

Runway Information

Runway 17/35

Dimensions: 3204 x 50 ft. / 977 x 15 m
Surface: asphalt, in good condition
Weight bearing capacity: 
Single wheel: 12.0
Runway edge lights: low intensity
Runway edge markings: PAINT MARKINGS FADED.
RUNWAY 17  RUNWAY 35
Latitude: 31-57.095873N31-56.567430N
Longitude: 099-59.148910W099-59.153095W
Elevation: 1865.5 ft.1871.0 ft.
Gradient: 0.2%0.2%
Traffic pattern: leftleft
Runway heading: 172 magnetic, 180 true352 magnetic, 000 true
Markings: nonprecision, in poor conditionnonprecision, in poor condition
Touchdown point: yes, no lightsyes, no lights
Obstructions: 5 ft. fence, 200 ft. from runway, 163 ft. right of centerline
+5 FT FENCE FM THLD TO 200 FT FM THLD AND 243 FT TO 163 FT RIGHT.
4 ft. fence, 200 ft. from runway, 200 ft. left of centerline
+4 FT FENCE 200 FT LEFT OF CNTRLN AT THLD; SCATTERED 10 FT + TREES 180 - 200 FT FM THLD 200 FT LEFT

Airport Ownership and Management from official FAA records

Ownership: Publicly-owned
Owner: CITY OF WINTERS
310 S MAIN
WINTERS, TX 79567
Phone 325-754-4424
Manager: STEVE BALLARD
P.O. BOX 63
WINTERS, TX 79567
Phone (325) 365-6333

Airport Operational Statistics

Aircraft based on the field: 8
Single engine airplanes: 8
    
Aircraft operations: avg 61/week *
75% local general aviation
25% transient general aviation
* for 12-month period ending 12 December 2014

Additional Remarks

4 FT PROPERTY LINE FENCE 163-200 FT WEST OF RY.

Instrument Procedures

NOTE: All procedures below are presented as PDF files. If you need a reader for these files, you should download the free Adobe Reader.

NOT FOR NAVIGATION. Please procure official charts for flight.
FAA instrument procedures published for use from 29 March 2018 at 0901Z to 26 April 2018 at 0900Z.

 
IAPs - Instrument Approach Procedures
RNAV (GPS) RWY 17   download (144KB)
RNAV (GPS) RWY 35   download (163KB)
NOTE: Special Take-Off Minimums/Departure Procedures apply   download (107KB)

Other nearby airports with instrument procedures:

E30 - Bruce Field Airport (16 nm S)
KDYS - Dyess Air Force Base (29 nm N)
KCOM - Coleman Municipal Airport (30 nm E)
KABI - Abilene Regional Airport (32 nm NE)
KSWW - Avenger Field Airport (40 nm NW)
 
Loc | Ops | Rwys | IFR | FBO | Links
Com | Nav | Svcs | Stats | Notes

AirNav Hotels Sweepstakes
 
Area around 77F (Winters Municipal Airport)
 
Road maps at: MapQuest Bing Google
 
Aerial photo
WARNING: Photo may not be current or correct
Aerial photo of 77F (Winters Municipal Airport)
Taken in December 2004

Do you have a better or more recent aerial photo of Winters Municipal Airport that you would like to share? If so, please send us your photo.

 
Sectional chart

 
Airport distance calculator
Flying to Winters Municipal Airport? Find the distance to fly.

From to 77F

Sunrise and sunset
Times for 24-Apr-2018
 Local
(UTC-5)
 Zulu
(UTC)
Morning civil twilight06:3711:37
Sunrise07:0212:02
Sunset20:1401:14
Evening civil twilight20:4001:40

Current date and time
Zulu (UTC)  24-Apr-2018 08:11:36
Local (UTC-5)  24-Apr-2018 03:11:36
 
METAR
KDYS 
29nm N 
240756Z AUTO 13008KT 10SM CLR 15/06 A3005 RMK AO2 SLP147 T01470060 $
KCOM 
30nm E 
240755Z AUTO 00000KT 10SM CLR 13/05 A3006 RMK AO2 T01250051
KABI 
32nm NE 
240752Z 15007KT 10SM CLR 12/08 A3006 RMK AO2 SLP162 T01170078
KSWW 
40nm NW 
240755Z AUTO 11010KT 10SM CLR 16/06 A3007 RMK AO2 T01630064
KSJT 
44nm SW 
240751Z AUTO 00000KT 10SM CLR 14/05 A3002 RMK AO2 SLP151 T01440050
TAF
KDYS 
29nm N 
240000Z 2400/2506 04006KT 9999 SKC QNH3001INS BECMG 2405/2406 14006KT 9999 FEW300 QNH3002INS BECMG 2417/2418 16012G20KT 9999 SCT045 BKN150 QNH3001INS BECMG 2500/2501 14015G25KT 9000 -SHRA BKN040 OVC150 QNH3002INS TEMPO 2502/2506 14025G35KT 2400 TSRA BKN030CB TX32/2421Z TN11/2411Z
KABI 
32nm NE 
240520Z 2406/2506 13006KT P6SM SCT250 FM241500 15012G18KT P6SM BKN250 FM250000 10010KT P6SM VCTS BKN050CB
NOTAMs
Click for the latest NOTAMs
NOTAMs are issued by the DoD/FAA and will open in a separate window not controlled by AirNav.

 

 
 

Would you like to see your business listed on this page?

 If your business provides an interesting product or service to pilots, flight crews, aircraft, or users of the Winters Municipal Airport, you should consider listing it here.  To start the listing process, click on the button below
 
Add a business
 

Other Pages about Winters Municipal Airport

Update a link
 
Copyright © AirNav, LLC. All rights reserved. Privacy Policy  Contact